Wind_Speed
16 15 11 12 8 9 13 8 13 10 11 9 10 9 10 18 13 7 6 15 5 4 12 13 11 13 18 19 18 19 17 12 5 6 7 10 13 15 18 19 19 20 23 26 28 29 28 21 13
16 14 14 15 12 12 13 13 13 10 11 13 10 11 11 14 10 5 9 10 6 7 9 10 9 11 16 17 18 16 16 14 10 6 6 8 10 11 11 13 14 16 17 20 25 27 27 29 26
16 16 15 14 20 19 10 16 14 8 7 15 15 14 14 14 13 9 12 9 6 7 8 8 8 11 14 13 12 11 11 11 9 8 9 8 9 10 11 11 13 14 16 17 18 21 25 26 26
16 18 19 22 23 25 18 17 15 9 7 11 14 14 14 10 15 17 10 7 6 7 6 6 7 12 12 12 11 7 7 7 9 9 10 13 13 13 13 13 13 14 15 15 16 17 20 22 24
16 21 23 25 32 25 24 12 17 6 8 14 12 13 10 13 14 16 10 8 5 5 6 4 7 9 9 12 10 11 6 7 7 9 10 13 16 17 17 16 14 15 15 16 16 17 18 19 21
18 22 21 28 33 28 21 19 15 7 9 15 15 17 13 13 10 16 10 7 3 2 3 3 5 6 6 11 12 11 9 8 8 10 11 12 16 20 21 20 18 17 16 17 18 18 19 19 19
21 23 31 33 29 28 23 17 16 8 11 15 15 18 15 12 16 16 10 3 2 3 2 1 4 6 6 11 9 10 12 12 10 11 15 15 16 19 21 22 22 21 20 19 20 20 20 20 20
23 25 31 35 32 30 21 15 19 15 16 18 16 16 15 14 18 12 6 4 5 5 5 5 7 7 7 12 11 13 14 15 15 12 14 19 20 19 21 23 23 24 24 24 23 23 22 22 22
28 31 30 36 33 33 23 17 22 23 18 17 19 20 20 19 17 13 10 9 8 9 8 10 10 11 12 13 13 15 15 14 16 16 14 16 19 21 22 23 25 25 26 26 26 26 24 24 23
36 41 42 36 30 30 26 22 23 29 24 19 19 14 17 14 20 18 14 12 12 12 13 14 16 16 15 15 15 16 17 17 18 18 18 17 19 22 24 23 23 23 25 27 27 27 26 26 25
43 49 39 37 31 27 27 30 27 31 34 27 21 22 22 20 19 19 16 16 16 16 17 16 17 18 21 18 17 19 21 21 20 20 21 20 19 22 26 25 24 22 24 26 27 27 27 28 27
47 50 45 39 37 33 30 30 38 36 39 36 32 27 26 26 28 24 23 24 26 26 21 17 18 18 18 18 19 20 25 25 24 24 24 21 19 23 26 26 25 24 27 27 27 26 26 28 27
51 51 49 45 42 39 35 39 39 46 41 40 44 43 31 32 32 33 36 34 34 34 28 24 23 20 20 22 25 22 22 25 26 27 27 21 19 21 26 27 31 27 29 28 27 26 28 26 27
50 50 54 49 46 44 41 42 42 52 43 42 42 41 37 36 36 38 39 39 37 32 30 27 26 23 25 29 29 29 26 25 26 27 28 22 22 20 26 28 30 30 27 29 25 26 30 27 27
51 47 38 47 51 49 43 50 59 50 46 45 40 41 43 45 47 44 40 42 39 35 33 31 28 25 29 32 29 28 25 24 24 24 26 26 22 24 23 26 29 32 28 19 26 31 39 31 29
37 40 43 52 51 52 43 57 64 51 52 50 50 49 54 53 47 41 40 40 39 39 39 37 36 36 39 33 30 27 27 25 25 28 27 28 24 22 22 28 29 29 25 19 21 31 36 32 29
28 40 40 39 44 40 29 60 57 58 56 58 59 53 51 50 48 45 41 42 40 43 44 42 38 40 36 31 29 30 28 27 28 26 28 28 22 22 26 30 26 22 22 24 28 28 32 32 27
31 32 36 35 28 31 38 61 47 37 37 52 53 53 50 51 52 50 50 47 44 43 46 44 41 33 31 28 29 29 28 28 30 30 29 28 23 25 29 28 26 24 26 26 26 24 30 28 25
27 10 32 27 22 28 38 49 48 49 51 53 55 54 53 55 55 56 53 51 53 52 45 41 37 29 27 26 30 29 26 27 29 27 28 28 26 30 27 25 24 25 24 27 25 24 26 24 23
30 28 15 14 23 26 25 37 38 44 54 58 59 57 52 51 49 48 47 44 45 47 45 41 32 28 24 25 21 23 24 27 24 25 26 28 28 28 27 25 22 23 28 26 22 22 23 22 21
26 32 33 17 16 20 19 35 39 45 46 47 49 50 49 49 48 44 38 36 36 37 37 33 32 29 28 26 27 25 25 24 23 24 27 28 27 28 26 24 25 26 25 23 19 22 20 19 17
28 17 18 27 24 24 12 17 23 26 44 52 52 48 46 45 44 39 32 27 26 28 31 31 30 31 24 29 31 25 23 23 22 25 25 25 27 28 26 24 26 23 20 19 20 18 16 15 13
26 24 16 11 15 19 29 21 41 25 40 45 43 43 41 38 36 33 34 32 26 26 32 32 31 25 22 20 22 24 24 23 24 22 23 27 28 27 25 24 21 18 19 19 16 15 13 10 11
14 19 24 23 19 19 28 17 45 35 40 42 38 32 30 31 30 28 29 31 29 29 31 32 27 29 24 23 24 25 21 20 20 21 23 24 21 23 22 20 16 19 18 15 14 12 9 9 9
12 16 12 14 17 19 11 19 43 5 2 13 14 10 11 4 12 21 26 26 24 23 22 23 25 24 25 26 26 22 20 20 20 21 22 16 17 19 17 16 18 18 15 13 11 9 9 10 9
21 22 14 16 14 21 20 16 18 18 24 16 17 8 11 15 14 18 20 18 18 17 17 18 18 18 20 20 18 18 18 19 18 19 15 19 18 15 15 16 16 13 12 10 9 9 11 11 10
21 19 27 7 7 15 19 29 32 16 6 5 7 12 13 13 15 15 15 21 18 17 15 14 15 15 14 14 15 15 17 15 16 16 15 12 13 14 14 13 12 10 9 8 8 9 10 11 10
16 16 19 18 6 8 11 25 16 6 20 16 11 13 13 16 17 19 19 19 16 13 13 13 14 17 14 13 13 13 13 14 14 12 12 14 13 12 10 9 8 7 6 6 8 8 9 10 12
7 12 14 17 17 3 3 3 9 9 11 7 2 6 12 11 13 18 20 19 15 13 14 12 13 14 13 11 10 12 11 12 13 13 13 12 11 9 7 6 6 6 5 7 8 9 10 15 13
11 7 12 14 22 19 14 6 9 16 15 10 5 5 4 11 16 20 19 18 16 15 15 14 12 12 11 10 10 10 12 12 11 12 12 10 7 6 6 6 6 4 5 5 6 10 13 19 14
Wind_Direction
233 222 214 213 211 229 235 214 165 146 144 150 168 171 181 187 193 196 198 181 151 94 55 47 56 43 40 40 49 47 42 31 19 17 18 25 29 36 39 34 29 31 31 31 28 28 30 24 1
232 221 214 215 220 220 224 196 174 155 162 163 162 164 181 207 202 204 184 187 161 101 60 64 57 49 43 35 33 33 38 36 15 345 347 352 359 11 25 28 22 20 24 25 28 25 22 24 23
233 221 215 217 223 222 221 177 171 176 164 170 175 184 195 204 190 193 172 178 124 79 67 74 56 48 38 36 36 27 26 25 8 339 317 315 323 335 347 359 2 3 8 12 13 20 17 15 16
231 224 221 226 226 225 208 186 202 196 233 190 185 190 209 210 191 177 184 166 114 91 65 83 57 34 30 28 22 18 12 3 3 336 316 305 308 314 320 327 335 343 347 352 355 0 7 9 9
229 228 224 236 234 228 212 200 187 225 216 200 184 190 189 173 169 187 153 131 127 86 88 76 52 21 26 13 358 353 341 338 326 317 307 302 299 299 301 305 312 320 326 331 336 343 350 357 1
234 229 230 239 239 239 233 214 214 231 206 186 189 185 193 196 168 167 154 143 138 99 75 119 24 7 348 359 348 328 315 313 308 303 296 298 295 291 292 295 299 303 309 317 322 329 334 340 345
241 239 240 244 246 242 238 231 216 181 172 189 184 183 189 175 166 163 138 129 192 239 10 337 306 314 320 333 318 312 314 307 298 299 284 286 292 293 291 291 292 295 299 306 311 315 320 327 330
243 242 243 244 245 240 239 232 198 186 151 151 142 180 182 172 168 187 211 273 256 280 279 284 285 296 273 311 311 308 312 314 299 296 284 275 281 288 297 294 291 293 296 301 304 306 311 314 318
238 238 241 245 243 241 231 223 213 198 174 146 144 147 155 158 172 186 199 228 243 245 262 271 271 292 298 306 300 299 299 300 293 285 284 278 280 280 287 293 291 294 295 296 297 300 304 305 309
229 236 244 248 249 252 242 227 212 211 202 173 161 174 177 182 189 198 208 219 222 238 254 258 263 273 285 290 288 291 288 287 292 284 285 283 282 276 280 286 294 295 294 291 292 295 298 299 299
233 237 249 252 253 251 250 239 241 228 216 200 198 200 205 219 220 223 236 232 252 235 236 243 252 257 266 278 283 283 280 283 284 277 281 278 277 274 271 279 287 292 289 289 290 293 297 297 294
237 241 239 245 247 246 245 246 238 237 223 221 217 225 213 222 235 242 243 248 260 255 247 247 262 265 269 265 276 282 276 274 280 279 270 267 277 269 270 275 282 285 285 285 288 292 295 295 293
240 244 245 242 245 243 242 239 248 235 230 231 234 234 238 248 246 254 252 259 259 253 251 252 262 271 266 261 272 275 278 273 276 280 267 265 283 272 270 271 273 284 283 282 282 285 286 292 291
242 245 247 247 246 244 245 240 244 238 244 240 239 239 246 255 256 262 258 262 264 252 255 256 265 277 268 267 269 268 266 275 278 275 268 262 280 284 267 273 276 272 276 278 278 293 290 288 287
242 241 244 243 244 246 246 246 237 243 247 253 244 247 248 256 264 266 267 264 263 253 256 261 267 271 279 277 266 263 267 270 271 266 264 262 274 279 268 271 272 271 275 298 297 300 290 284 281
242 246 244 242 243 244 239 246 236 241 249 253 253 257 259 260 263 263 264 266 263 257 258 260 266 278 284 274 265 260 266 272 270 272 262 262 272 271 264 265 269 269 277 272 273 280 284 284 280
235 238 236 244 240 239 226 246 249 242 246 249 252 254 256 260 262 262 263 263 259 258 259 263 270 275 277 258 259 262 268 268 265 274 269 263 265 265 257 261 270 267 266 259 274 280 282 280 281
233 242 245 245 238 234 233 248 247 244 245 248 252 256 259 261 262 261 260 259 259 258 261 265 267 273 257 261 260 267 268 267 267 274 264 266 261 264 261 266 262 263 265 267 273 275 276 278 282
245 271 249 248 234 232 237 248 251 253 248 251 254 257 261 263 264 262 261 261 259 258 259 261 269 258 260 265 263 265 264 264 269 272 265 267 262 260 267 267 264 268 266 269 275 273 274 281 287
242 244 252 237 225 230 238 247 245 246 252 253 256 258 260 262 264 264 263 265 262 257 254 259 253 243 244 245 253 261 259 262 263 261 263 260 264 265 267 264 257 259 268 271 270 270 280 287 290
240 241 240 242 220 235 259 257 249 248 253 255 255 257 257 260 262 261 262 265 260 254 252 248 235 240 246 249 252 257 257 261 267 261 263 264 265 263 264 262 262 259 269 271 266 278 286 289 286
239 240 239 239 247 248 226 271 250 249 253 255 257 259 259 260 264 266 260 253 256 248 236 230 234 241 254 255 256 257 254 265 257 257 252 253 257 260 265 259 260 268 268 272 278 284 286 281 282
239 231 225 233 241 249 249 269 268 259 262 257 254 259 264 268 266 260 257 256 246 239 231 232 237 243 243 249 246 248 252 259 253 260 256 258 263 267 256 265 269 268 274 282 279 281 277 274 280
235 227 230 240 245 247 244 240 272 257 261 270 270 273 268 262 254 254 255 248 243 240 236 238 245 236 240 244 244 246 242 248 253 262 262 259 257 250 255 262 263 276 280 273 272 270 264 264 275
231 210 191 212 219 238 242 219 240 164 215 245 195 191 170 314 234 235 238 236 236 245 242 235 238 235 235 245 248 231 235 247 255 259 251 249 262 256 249 257 269 270 266 266 265 257 255 255 261
229 204 210 213 212 236 219 232 241 259 251 270 260 227 264 259 248 223 220 211 215 220 222 229 234 234 238 248 214 225 240 249 253 248 251 258 247 242 258 264 267 262 258 256 250 255 256 249 251
224 215 211 286 233 224 204 242 253 241 239 257 215 231 240 236 238 226 214 205 207 218 221 222 225 231 202 201 214 230 247 245 246 246 240 239 250 257 258 258 254 249 246 248 255 260 260 247 264
225 216 198 214 223 207 214 233 231 192 221 234 266 267 250 255 215 219 212 202 205 205 209 203 205 187 190 205 223 238 245 246 241 236 244 251 252 255 252 251 246 248 249 257 266 279 279 244 299
260 244 206 226 231 279 270 172 187 164 161 154 352 276 260 249 217 200 196 197 189 196 187 181 181 188 198 212 232 244 241 248 254 251 250 254 256 249 247 246 243 241 250 273 289 284 271 250 271
224 244 223 237 226 240 277 269 99 142 129 137 128 47 324 200 183 181 189 193 192 195 186 182 186 193 195 220 237 240 249 252 243 248 253 252 243 245 246 229 224 235 270 294 299 297 286 272 265
Height
3160 3160 3161 3164 3170 3165 3162 3162 3163 3164 3165 3166 3166 3168 3170 3171 3174 3179 3176 3177 3178 3178 3177 3177 3178 3179 3178 3178 3178 3178 3178 3178 3178 3178 3177 3177 3177 3176 3175 3175 3174 3173 3172 3170 3169 3167 3165 3162 3160
3157 3158 3160 3161 3163 3161 3160 3160 3162 3164 3163 3164 3166 3167 3169 3171 3171 3174 3175 3177 3178 3178 3178 3178 3178 3179 3178 3178 3177 3178 3178 3178 3178 3178 3177 3177 3177 3176 3176 3174 3174 3173 3172 3170 3168 3166 3165 3163 3161
3155 3156 3158 3158 3156 3155 3157 3159 3160 3162 3162 3162 3164 3165 3168 3169 3170 3171 3174 3175 3176 3177 3178 3178 3178 3178 3178 3179 3178 3178 3178 3178 3177 3177 3177 3177 3176 3176 3175 3174 3173 3171 3170 3169 3168 3166 3164 3162 3160
3152 3154 3156 3153 3149 3151 3155 3157 3158 3159 3160 3160 3162 3163 3165 3166 3169 3171 3172 3173 3174 3175 3176 3177 3178 3178 3177 3177 3177 3177 3176 3176 3176 3176 3175 3175 3174 3174 3174 3173 3172 3170 3169 3168 3167 3165 3163 3161 3160
3149 3149 3150 3146 3147 3148 3151 3154 3156 3156 3156 3158 3159 3162 3163 3165 3166 3169 3169 3170 3171 3174 3175 3176 3176 3176 3176 3176 3175 3175 3175 3174 3174 3174 3174 3173 3173 3173 3172 3171 3170 3169 3168 3167 3166 3164 3162 3160 3159
3146 3146 3144 3143 3143 3147 3149 3151 3152 3153 3153 3155 3157 3158 3161 3163 3165 3165 3167 3169 3169 3171 3172 3173 3174 3174 3175 3175 3174 3173 3173 3172 3172 3172 3172 3171 3171 3170 3170 3169 3168 3167 3166 3165 3164 3162 3161 3159 3158
3142 3140 3139 3140 3140 3142 3147 3150 3151 3152 3151 3153 3154 3155 3159 3161 3162 3162 3164 3166 3167 3168 3169 3171 3171 3172 3172 3172 3171 3171 3170 3170 3170 3169 3170 3169 3168 3167 3167 3166 3165 3165 3164 3163 3162 3160 3159 3158 3156
3136 3136 3135 3133 3135 3137 3143 3146 3149 3150 3150 3150 3151 3152 3155 3158 3160 3161 3161 3163 3164 3166 3167 3167 3168 3168 3169 3169 3168 3168 3168 3167 3167 3166 3166 3165 3164 3164 3163 3163 3162 3162 3161 3160 3159 3158 3156 3155 3153
3131 3130 3127 3127 3130 3134 3139 3142 3145 3146 3147 3147 3149 3150 3152 3154 3156 3157 3158 3160 3161 3163 3164 3164 3164 3165 3165 3165 3165 3166 3165 3164 3164 3163 3162 3161 3160 3160 3159 3159 3158 3158 3157 3156 3156 3154 3153 3151 3149
3121 3118 3119 3124 3128 3131 3137 3138 3140 3143 3143 3144 3146 3147 3149 3152 3151 3152 3154 3156 3157 3159 3160 3160 3160 3161 3161 3161 3162 3161 3161 3160 3159 3158 3158 3157 3156 3156 3154 3155 3155 3154 3153 3152 3151 3150 3148 3146 3145
3111 3106 3117 3118 3124 3127 3131 3133 3134 3135 3135 3138 3141 3143 3144 3146 3148 3149 3150 3151 3152 3154 3154 3155 3156 3156 3156 3157 3157 3156 3155 3155 3154 3153 3153 3152 3152 3151 3150 3151 3150 3150 3149 3147 3146 3145 3143 3142 3140
3104 3102 3107 3114 3117 3120 3124 3128 3125 3126 3129 3132 3134 3137 3139 3140 3142 3145 3146 3146 3148 3148 3149 3150 3150 3150 3150 3150 3151 3150 3149 3149 3148 3148 3147 3147 3147 3146 3146 3146 3146 3146 3145 3143 3142 3140 3138 3136 3135
3094 3098 3100 3106 3109 3112 3116 3116 3117 3116 3123 3125 3127 3129 3132 3134 3137 3139 3139 3140 3142 3142 3144 3144 3144 3144 3144 3144 3144 3144 3143 3142 3142 3142 3141 3141 3141 3140 3140 3140 3141 3141 3140 3139 3137 3134 3132 3131 3130
3089 3092 3092 3096 3100 3104 3107 3108 3110 3106 3114 3118 3120 3122 3125 3125 3129 3131 3133 3133 3134 3136 3137 3138 3137 3137 3136 3136 3136 3136 3136 3136 3135 3135 3135 3135 3134 3133 3133 3135 3135 3135 3135 3133 3131 3129 3127 3125 3124
3080 3082 3084 3083 3090 3093 3100 3099 3088 3103 3107 3107 3112 3113 3117 3118 3120 3122 3124 3124 3126 3129 3129 3130 3129 3129 3129 3129 3129 3129 3130 3129 3128 3128 3128 3128 3127 3126 3127 3127 3127 3128 3128 3128 3128 3126 3122 3120 3119
3072 3076 3075 3073 3080 3083 3091 3083 3082 3099 3097 3098 3102 3106 3108 3108 3111 3114 3116 3116 3118 3120 3121 3121 3121 3121 3121 3121 3122 3122 3122 3122 3122 3121 3120 3120 3121 3120 3120 3119 3120 3121 3122 3121 3119 3116 3116 3115 3113
3064 3059 3061 3068 3069 3078 3080 3068 3078 3088 3089 3088 3092 3095 3097 3098 3101 3105 3108 3107 3109 3110 3111 3112 3113 3113 3114 3113 3114 3115 3115 3115 3115 3115 3114 3115 3115 3115 3113 3112 3114 3114 3114 3112 3110 3108 3110 3109 3107
3054 3055 3059 3060 3067 3068 3070 3055 3071 3075 3077 3078 3083 3084 3086 3088 3091 3095 3096 3098 3098 3099 3102 3103 3105 3106 3105 3106 3106 3107 3107 3108 3108 3108 3108 3108 3109 3108 3107 3106 3106 3106 3107 3106 3105 3103 3103 3103 3101
3054 3052 3054 3057 3059 3062 3059 3054 3060 3066 3068 3068 3068 3072 3076 3077 3080 3081 3084 3086 3087 3089 3093 3095 3097 3097 3097 3098 3099 3099 3100 3100 3101 3101 3102 3102 3102 3101 3100 3100 3100 3101 3100 3100 3099 3098 3097 3096 3094
3048 3050 3050 3050 3052 3054 3055 3048 3051 3053 3054 3058 3061 3062 3064 3067 3070 3071 3073 3075 3076 3078 3083 3085 3088 3089 3090 3091 3092 3093 3093 3094 3094 3095 3095 3095 3095 3095 3094 3095 3094 3095 3093 3094 3093 3092 3091 3090 3088
3041 3042 3047 3048 3049 3049 3048 3041 3042 3043 3045 3048 3050 3052 3055 3057 3058 3061 3064 3066 3066 3067 3072 3075 3077 3080 3082 3084 3085 3086 3086 3087 3088 3088 3088 3088 3089 3088 3088 3089 3088 3088 3087 3087 3088 3087 3085 3084 3083
3035 3038 3040 3043 3048 3045 3045 3031 3033 3035 3035 3036 3040 3044 3046 3047 3049 3052 3055 3056 3057 3059 3062 3065 3068 3071 3074 3076 3077 3079 3081 3081 3082 3081 3081 3081 3081 3081 3082 3082 3082 3081 3081 3081 3081 3080 3079 3079 3078
3030 3035 3037 3039 3041 3043 3039 3038 3016 3029 3023 3028 3033 3036 3038 3039 3041 3043 3044 3046 3049 3050 3053 3057 3061 3064 3067 3068 3071 3073 3074 3075 3075 3074 3075 3075 3075 3075 3075 3075 3075 3076 3076 3075 3076 3075 3075 3075 3074
3027 3028 3032 3036 3038 3032 3033 3038 3005 3018 3017 3021 3027 3031 3031 3031 3031 3033 3035 3036 3040 3042 3046 3050 3054 3056 3059 3062 3064 3066 3068 3069 3069 3069 3069 3070 3070 3070 3070 3070 3071 3071 3071 3072 3072 3071 3071 3071 3071
3021 3024 3022 3027 3026 3019 3027 3031 3006 3008 3013 3014 3020 3022 3023 3024 3023 3025 3027 3028 3032 3035 3040 3043 3045 3049 3053 3055 3057 3059 3062 3063 3063 3063 3064 3065 3065 3065 3066 3068 3068 3068 3068 3068 3068 3068 3068 3067 3067
3015 3016 3014 3011 3009 3010 3024 3014 3006 3006 3012 3013 3015 3017 3017 3018 3019 3019 3019 3024 3028 3031 3035 3038 3041 3043 3046 3049 3052 3055 3057 3058 3058 3058 3060 3060 3060 3062 3063 3063 3064 3064 3064 3064 3064 3065 3064 3064 3064
3011 3010 3013 3013 3009 3008 3009 3006 3004 3004 3009 3010 3011 3011 3012 3012 3013 3015 3017 3021 3025 3028 3031 3034 3036 3039 3042 3046 3049 3051 3052 3052 3054 3054 3054 3056 3057 3058 3059 3060 3060 3060 3060 3061 3061 3061 3061 3061 3060
3006 3007 3010 3010 3003 3001 2997 3000 2997 2999 3006 3007 3008 3008 3007 3007 3009 3010 3014 3019 3022 3025 3028 3030 3032 3036 3039 3043 3045 3047 3047 3049 3050 3051 3052 3053 3053 3054 3055 3056 3056 3056 3057 3058 3058 3058 3058 3058 3057
3002 3002 3003 3003 3002 2995 2992 2989 2990 2996 2998 3002 3004 3004 3003 3002 3004 3007 3012 3016 3020 3023 3026 3028 3031 3034 3037 3040 3041 3042 3044 3045 3046 3047 3048 3049 3050 3050 3051 3052 3053 3055 3055 3056 3055 3054 3054 3053 3050
3001 3001 3001 2998 2998 3000 3001 2993 2988 2991 2994 2997 2999 2999 2997 2997 3000 3004 3009 3014 3019 3022 3024 3027 3030 3032 3034 3036 3038 3040 3041 3041 3042 3044 3045 3045 3046 3047 3049 3050 3052 3053 3053 3053 3052 3051 3050 3047 3045